Location: Claflin County Park
(44.8478°N, 87.5507°W)
Time: 01:37:52
(UTC+00:00)

SL-19 R/B - Pass Details

Date: 10 December 2025
Orbit: 796 x 1007 km, 99.6° (Epoch: 12 January)

Event Time Altitude Azimuth Distance (km) Brightness Sun altitude
Rises 00:23:51 0° 164° (SSE) 3,317 7.2 -23.0°
Reaches altitude 10° 00:26:08 10° 164° (SSE) 2,407 6.5 -23.4°
Maximum altitude 00:31:28 87° 254° (WSW) 852 4.1 -24.3°
Drops below altitude 10° 00:37:06 10° 344° (NNW) 2,543 6.8 -25.3°
Sets 00:39:34 0° 345° (NNW) 3,519 7.5 -25.7°
